Weather in Skugry

Russia / Pskov Oblast     57°51′01″N   29°53′14″E
temp.,
°C
wind,
m/s
gust,
m/s
humid.,
%
clouds,
%
prec.,
mm/h
press.,
hPa
HPBL,
m
17 september, fri
fri1700:00+5e2372100 0.0 102173
03:00+4ese2482100 0.0 102186
06:00+3e258599 0.0 1021109
09:00+6e377180 0.0 1020384
12:00+10e455466 0.0 10201438
15:00+12e464747 0.0 10201649
18:00+10ene485534 0.0 1021764
21:00+5ene3117924 0.0 1022264
18 september, sat
sat1800:00+4e3118146 0.0 1023296
03:00+2ene398687 0.0 1024215
06:00+2ene31084100 0.0 1024237
09:00+6ene41268100 0.0 1024469
12:00+10e5850100 0.0 10241285
15:00+12ene5847100 0.0 10221475
18:00+10ene4957100 0.0 1022972
21:00+7ene51267100 0.0 1023642
19 september, sun
sun1900:00+6ene51374100 0.0 1023584
03:00+4ene51279100 0.0 1022498
06:00+3ene51379100 0.0 1022473
09:00+5ene51371100 0.0 1023527
12:00+9ene61057100 0.0 1022926
15:00+10ene61055100 0.0 10221121
18:00+9ene51160100 0.0 10221137
21:00+7ene51164100 0.0 1022960
20 september, mon
mon2000:00+6ene51169100 0.0 1022730
03:00+5ene51272100 0.0 1022694
06:00+4ne51278100 0.0 1022711
09:00+5ne61375100 0.0 1023723
12:00+7ene6106186 0.0 1023966
15:00+9ne6105697 0.0 10221221
18:00+7ne5116187 0.0 10221117
21:00+5ne5116483 0.0 1022878
21 september, tue
tue2100:00+4ne51169100 0.0 1022714
03:00+4ne51176100 0.0 1021662
06:00+2ne41182100 0.0 1020630
09:00+2ne41190100 0.0 1019594
12:00+2nne4993100 0.1 1019558
15:00+3nne41094100 0.4 1019571
18:00+4nne4997100 0.3 1019780
21:00+4nne4998100 0.8 1019779